Tracking 31030 objects as of 16-Jul-2025
HD Live streaming from Space Station
objects crossing your sky now

CZ-6A DEB

Track CZ-6A DEB now!
10-day predictions


NORAD ID: 56633
Int'l Code: 2022-151AFH
Perigee: 827.2 km
Apogee: 934.4 km
Inclination: 98.8 °
Period: 102.4 minutes
Semi major axis: 7251 km
RCS: Unknown
Launch date: November 11, 2022
Source: People's Republic of China (PRC)
Launch site: Taiyaun Space Center, China (TSC)

Note: This is SATELLITE DEBRIS
Your satellite tracking list
Your tracking list is empty




NASA's NSSDC Master Catalog

Two Line Element Set (TLE):
1 56633U 22151AFH 25193.73608613  .00000427  00000-0  28107-3 0  9992
2 56633  98.8478 186.8737 0073906 248.6851 110.6416 14.05844144114301
Source of the keplerian elements: AFSPC